Jj Sky — VRJA6 — position and weather

sailwx.info

Track history (hours):
 
Tides and Currents Weather Stations Pressure Air Temp Water Temp Dewpoint Dewpoint Depression Visibility Wind Speed Wind Dir Waves Ship Positions

Jj Sky

Last reported at 2014-Jul-24 22:33 UTC. Time now 2014-Jul-24 23:01 UTC.
Position N 35°13' E 139°46'.

Length 148 m; draft 7.5 m.

Type: Ship. MMSI: 477397500.

Date/timePositionNaut miles runAvg speedWind from/ knotsBaromVisibWave heightAir tempDewpointWater temp
2014-Jul-24 22:33N 35°13' E 139°46'1313.4
2014-Jul-24 21:33N 35°27' E 139°43'2 1.7
2014-Jul-24 20:31N 35°27' E 139°41'0 0.0
2014-Jul-24 19:31N 35°27' E 139°41'0 0.0
2014-Jul-24 18:31N 35°27' E 139°41'0 0.0
2014-Jul-24 17:33N 35°27' E 139°41'0 0.0
2014-Jul-24 16:33N 35°27' E 139°41'0 0.0
2014-Jul-24 15:29N 35°27' E 139°41'0 0.0
2014-Jul-24 14:32N 35°27' E 139°41'0 0.0
2014-Jul-24 13:31N 35°27' E 139°41'0 0.0
2014-Jul-24 12:31N 35°27' E 139°41'0 0.0
2014-Jul-24 11:31N 35°27' E 139°41'0 0.0
2014-Jul-24 10:33N 35°27' E 139°41'1 0.6
2014-Jul-24 09:33N 35°28' E 139°42'8 8.4
2014-Jul-24 08:33N 35°34' E 139°49'5 4.2
2014-Jul-24 07:27N 35°37' E 139°46'0 0.0
2014-Jul-24 06:33N 35°37' E 139°46'0 0.0
2014-Jul-24 05:32N 35°37' E 139°46'0 0.0
2014-Jul-24 04:32N 35°37' E 139°46'0 0.0
2014-Jul-24 03:25N 35°37' E 139°46'0 0.0
2014-Jul-24 02:32N 35°37' E 139°46'0 0.0
2014-Jul-24 01:31N 35°37' E 139°46'0 0.0
2014-Jul-24 00:25N 35°37' E 139°46'0 0.0
2014-Jul-23 23:30N 35°37' E 139°46'0 0.0
2014-Jul-23 22:33N 35°37' E 139°46'8 8.3
2014-Jul-23 21:33N 35°31' E 139°52'1313.3
2014-Jul-23 20:33N 35°19' E 139°44'1111.2
2014-Jul-23 19:33N 35°08' E 139°45'1212.3
2014-Jul-23 18:33N 34°59' E 139°35'1414.4
2014-Jul-23 17:33N 34°51' E 139°21'  
2014-Jul-21 13:17N 30°58' E 122°56'3216.0
2014-Jul-21 11:17N 31°02' E 122°19'1412.2
2014-Jul-21 10:10N 31°04' E 122°03'1012.4
2014-Jul-21 09:24N 31°09' E 121°53'15 2.1
2014-Jul-21 02:08N 31°20' E 121°40'0 0.0
2014-Jul-20 16:32N 31°20' E 121°40'4511.2
2014-Jul-20 12:32N 31°07' E 122°30'24 3.8
2014-Jul-20 06:21N 30°60' E 122°57'  
2014-Jul-17 23:33N 34°57' E 139°28'1717.5
2014-Jul-17 22:33N 35°08' E 139°44'1313.2
2014-Jul-17 21:34N 35°21' E 139°42'6 5.8
2014-Jul-17 20:31N 35°27' E 139°41'0 0.1
2014-Jul-17 19:31N 35°27' E 139°41'0 0.0
2014-Jul-17 18:33N 35°27' E 139°41'0 0.0
2014-Jul-17 17:30N 35°27' E 139°41'0 0.0
2014-Jul-17 16:29N 35°27' E 139°41'0 0.1
2014-Jul-17 15:32N 35°27' E 139°41'0 0.0
2014-Jul-17 14:28N 35°27' E 139°41'0 0.1
2014-Jul-17 13:31N 35°27' E 139°41'0 0.0
2014-Jul-17 12:33N 35°27' E 139°41'3 3.4
2014-Jul-17 11:33N 35°27' E 139°46'1110.5
2014-Jul-17 10:33N 35°37' E 139°46'0 0.1
2014-Jul-17 09:31N 35°37' E 139°46'0 0.0
2014-Jul-17 08:31N 35°37' E 139°46'0 0.1
2014-Jul-17 07:24N 35°37' E 139°46'0 0.0
2014-Jul-17 06:32N 35°37' E 139°46'0 0.0
2014-Jul-17 05:25N 35°37' E 139°46'0 0.1
2014-Jul-17 04:19N 35°37' E 139°46'0 0.0
2014-Jul-17 03:07N 35°37' E 139°46'0 0.0
2014-Jul-17 02:28N 35°37' E 139°46'0 0.0
2014-Jul-17 01:28N 35°37' E 139°46'0 0.0
2014-Jul-17 00:28N 35°37' E 139°46'0 0.0
2014-Jul-16 23:15N 35°37' E 139°46'0 0.2
2014-Jul-16 22:33N 35°37' E 139°46'8 7.8
2014-Jul-16 21:33N 35°31' E 139°52'1313.2
2014-Jul-16 20:33N 35°20' E 139°44'1211.6
2014-Jul-16 19:34N 35°08' E 139°46'1413.5
2014-Jul-16 18:31N 34°58' E 139°35'  
Track history (hours):
 
Tides and Currents Weather Stations Pressure Air Temp Water Temp Dewpoint Dewpoint Depression Visibility Wind Speed Wind Dir Waves Ship Positions

Jj Sky

Last reported at 2014-Jul-24 22:33 UTC. Time now 2014-Jul-24 23:01 UTC.
Position N 35°13' E 139°46'.

Length 148 m; draft 7.5 m.

Type: Ship. MMSI: 477397500.

Date/timePositionNaut miles runAvg speedWind from/ knotsBaromVisibWave heightAir tempDewpointWater temp
2014-Jul-24 22:33N 35°13' E 139°46'1313.4
2014-Jul-24 21:33N 35°27' E 139°43'2 1.7
2014-Jul-24 20:31N 35°27' E 139°41'0 0.0
2014-Jul-24 19:31N 35°27' E 139°41'0 0.0
2014-Jul-24 18:31N 35°27' E 139°41'0 0.0
2014-Jul-24 17:33N 35°27' E 139°41'0 0.0
2014-Jul-24 16:33N 35°27' E 139°41'0 0.0
2014-Jul-24 15:29N 35°27' E 139°41'0 0.0
2014-Jul-24 14:32N 35°27' E 139°41'0 0.0
2014-Jul-24 13:31N 35°27' E 139°41'0 0.0
2014-Jul-24 12:31N 35°27' E 139°41'0 0.0
2014-Jul-24 11:31N 35°27' E 139°41'0 0.0
2014-Jul-24 10:33N 35°27' E 139°41'1 0.6
2014-Jul-24 09:33N 35°28' E 139°42'8 8.4
2014-Jul-24 08:33N 35°34' E 139°49'5 4.2
2014-Jul-24 07:27N 35°37' E 139°46'0 0.0
2014-Jul-24 06:33N 35°37' E 139°46'0 0.0
2014-Jul-24 05:32N 35°37' E 139°46'0 0.0
2014-Jul-24 04:32N 35°37' E 139°46'0 0.0
2014-Jul-24 03:25N 35°37' E 139°46'0 0.0
2014-Jul-24 02:32N 35°37' E 139°46'0 0.0
2014-Jul-24 01:31N 35°37' E 139°46'0 0.0
2014-Jul-24 00:25N 35°37' E 139°46'0 0.0
2014-Jul-23 23:30N 35°37' E 139°46'0 0.0
2014-Jul-23 22:33N 35°37' E 139°46'8 8.3
2014-Jul-23 21:33N 35°31' E 139°52'1313.3
2014-Jul-23 20:33N 35°19' E 139°44'1111.2
2014-Jul-23 19:33N 35°08' E 139°45'1212.3
2014-Jul-23 18:33N 34°59' E 139°35'1414.4
2014-Jul-23 17:33N 34°51' E 139°21'  
2014-Jul-21 13:17N 30°58' E 122°56'3216.0
2014-Jul-21 11:17N 31°02' E 122°19'1412.2
2014-Jul-21 10:10N 31°04' E 122°03'1012.4
2014-Jul-21 09:24N 31°09' E 121°53'15 2.1
2014-Jul-21 02:08N 31°20' E 121°40'0 0.0
2014-Jul-20 16:32N 31°20' E 121°40'4511.2
2014-Jul-20 12:32N 31°07' E 122°30'24 3.8
2014-Jul-20 06:21N 30°60' E 122°57'  
2014-Jul-17 23:33N 34°57' E 139°28'1717.5
2014-Jul-17 22:33N 35°08' E 139°44'1313.2
2014-Jul-17 21:34N 35°21' E 139°42'6 5.8
2014-Jul-17 20:31N 35°27' E 139°41'0 0.1
2014-Jul-17 19:31N 35°27' E 139°41'0 0.0
2014-Jul-17 18:33N 35°27' E 139°41'0 0.0
2014-Jul-17 17:30N 35°27' E 139°41'0 0.0
2014-Jul-17 16:29N 35°27' E 139°41'0 0.1
2014-Jul-17 15:32N 35°27' E 139°41'0 0.0
2014-Jul-17 14:28N 35°27' E 139°41'0 0.1
2014-Jul-17 13:31N 35°27' E 139°41'0 0.0
2014-Jul-17 12:33N 35°27' E 139°41'3 3.4
2014-Jul-17 11:33N 35°27' E 139°46'1110.5
2014-Jul-17 10:33N 35°37' E 139°46'0 0.1
2014-Jul-17 09:31N 35°37' E 139°46'0 0.0
2014-Jul-17 08:31N 35°37' E 139°46'0 0.1
2014-Jul-17 07:24N 35°37' E 139°46'0 0.0
2014-Jul-17 06:32N 35°37' E 139°46'0 0.0
2014-Jul-17 05:25N 35°37' E 139°46'0 0.1
2014-Jul-17 04:19N 35°37' E 139°46'0 0.0
2014-Jul-17 03:07N 35°37' E 139°46'0 0.0
2014-Jul-17 02:28N 35°37' E 139°46'0 0.0
2014-Jul-17 01:28N 35°37' E 139°46'0 0.0
2014-Jul-17 00:28N 35°37' E 139°46'0 0.0
2014-Jul-16 23:15N 35°37' E 139°46'0 0.2
2014-Jul-16 22:33N 35°37' E 139°46'8 7.8
2014-Jul-16 21:33N 35°31' E 139°52'1313.2
2014-Jul-16 20:33N 35°20' E 139°44'1211.6
2014-Jul-16 19:34N 35°08' E 139°46'1413.5
2014-Jul-16 18:31N 34°58' E 139°35'  

Dump ship's entire track history